This is the latest recevied weather packets stored in our database for station/object IT9FDP-13. If no packets are shown the sender has not sent any weather packets the latest 10 day(s).
| Time | Temp. | Humidity | Pressure | Rain* | Wind** | Luminosity | Snow |
|---|---|---|---|---|---|---|---|
| 1777592746 | 16.67° C | 80% | 1015.5 hPa | 0 mm | - | - | - |
| 1777591862 | 16.67° C | 80% | 1015.5 hPa | 0 mm | - | - | - |
| 1777590340 | 16.67° C | 81% | 1015.8 hPa | 0 mm | - | - | - |
| 1777589421 | 16.11° C | 81% | 1015.8 hPa | 0 mm | - | - | - |
| 1777589117 | 16.11° C | 81% | 1015.8 hPa | 0 mm | - | - | - |
| 1777588516 | 16.11° C | 81% | 1015.8 hPa | 0 mm | - | - | - |
| 1777586121 | 16.67° C | 80% | 1015.7 hPa | 0 mm | - | - | - |
| 1777584624 | 16.67° C | 80% | 1015.6 hPa | 0 mm | - | - | - |
| 1777584317 | 16.67° C | 80% | 1015.6 hPa | 0 mm | - | - | - |
| 1777584019 | 16.67° C | 80% | 1015.6 hPa | 0 mm | - | - | - |
| 1777581038 | 17.22° C | 78% | 1015.1 hPa | 0 mm | - | - | - |
| 1777576226 | 17.78° C | 78% | 1015 hPa | 0 mm | - | - | - |
| 1777575624 | 17.78° C | 78% | 1014.9 hPa | 0 mm | - | - | - |
| 1777575316 | 17.78° C | 78% | 1015 hPa | 0 mm | - | - | - |
| 1777574718 | 17.78° C | 78% | 1014.7 hPa | 0 mm | - | - | - |
| 1777572317 | 17.78° C | 78% | 1014.4 hPa | 0 mm | - | - | - |
| 1777571122 | 17.78° C | 78% | 1014.2 hPa | 0 mm | - | - | - |
| 1777570522 | 18.33° C | 77% | 1014.3 hPa | 0 mm | - | - | - |
| 1777568418 | 18.33° C | 77% | 1014.1 hPa | 0 mm | - | - | - |
| 1777566943 | 17.78° C | 78% | 1014 hPa | 0 mm | - | - | - |
| 1777565417 | 18.33° C | 78% | 1013.8 hPa | 0 mm | - | - | - |
| 1777560326 | 19.44° C | 75% | 1013.7 hPa | 0 mm | - | - | - |
| 1777559137 | 19.44° C | 72% | 1013.8 hPa | 0 mm | - | - | - |
| 1777557927 | 18.89° C | 72% | 1013.9 hPa | 0 mm | - | - | - |
| 1777557621 | 18.89° C | 72% | 1013.9 hPa | 0 mm | - | - | - |
* Rain latest hour (hover to see other rain measurements)
** Current wind speed in m/s (hover to see current wind gust speed)